DG5MG Weather Reports


Display with metric or nautical units.
time (UTC)temp
F
wind
direction
speed
MPH
gust
MPH
rain 1hr
in
rain 24hr
in
rain mn
in
humidity
%
barometer
mb
20260507072505 52 268 3.0 6.0 0.00 0.27 0.00 77 1017.9
20260507071505 52 296 8.0 9.0 0.00 0.27 0.00 77 1017.6
20260507071005 53 272 6.0 7.0 0.00 0.27 0.00 76 1017.6
20260507070505 53 277 10.0 16.0 0.00 0.27 0.00 76 1017.6
20260507070010 53 282 12.0 16.0 0.00 0.27 0.00 76 1017.6
20260507065506 53 272 8.0 10.0 0.00 0.27 0.00 76 1017.6
20260507065005 53 275 7.0 10.0 0.00 0.27 0.00 76 1017.5
20260507064506 53 299 5.0 14.0 0.00 0.27 0.00 77 1017.3
20260507063505 52 287 7.0 14.0 0.00 0.27 0.00 78 1017.6
20260507063006 52 286 2.0 6.0 0.00 0.27 0.00 79 1017.3
20260507061506 52 127 9.0 12.0 0.00 0.27 0.00 79 1017.3
20260507061005 52 279 3.0 5.0 0.00 0.27 0.00 81 1017.3
20260507060505 52 279 3.0 5.0 0.00 0.27 0.00 81 1017.3
20260507060006 50 303 0.0 8.0 0.00 0.27 0.00 83 1017.3
20260507055506 50 291 7.0 8.0 0.00 0.27 0.00 84 1016.9
20260507055006 50 291 7.0 9.0 0.00 0.27 0.00 84 1016.9
20260507054521 49 331 7.0 9.0 0.00 0.27 0.00 85 1017.3
20260507054005 49 303 1.0 9.0 0.00 0.27 0.00 86 1017.3
20260507053506 49 270 1.0 2.0 0.00 0.27 0.00 86 1017.3
20260507053006 49 287 2.0 3.0 0.00 0.27 0.00 87 1016.9
20260507052506 49 271 2.0 3.0 0.00 0.27 0.00 87 1016.9
20260507052005 49 269 2.0 7.0 0.00 0.27 0.00 87 1016.9
20260507051505 48 280 6.0 7.0 0.00 0.27 0.00 88 1016.9
20260507051006 48 287 1.0 7.0 0.00 0.27 0.00 90 1016.6
20260507050006 47 296 0.0 0.0 0.00 0.27 0.00 93 1016.6
20260507045505 47 293 0.0 0.0 0.00 0.27 0.00 94 1016.6
20260507045005 47 293 0.0 0.0 0.00 0.27 0.00 94 1016.6
20260507044505 47 277 0.0 0.0 0.00 0.27 0.00 94 1016.6
20260507044006 47 277 0.0 0.0 0.00 0.27 0.00 94 1016.3
20260507043505 47 277 0.0 0.0 0.00 0.27 0.00 94 1016.3
20260507043005 47 277 0.0 1.0 0.00 0.27 0.00 93 1016.6
20260507042005 46 277 1.0 1.0 0.00 0.27 0.00 94 1016.3
20260507041005 47 279 0.0 0.0 0.00 0.27 0.00 93 1015.9
20260507040005 47 279 0.0 0.0 0.00 0.27 0.00 92 1016.3
20260507035505 47 279 0.0 0.0 0.00 0.27 0.00 92 1016.3
20260507035005 47 279 0.0 0.0 0.00 0.27 0.00 92 1015.6
20260507034505 47 279 1.0 1.0 0.00 0.27 0.00 92 1015.7
20260507033505 47 279 0.0 0.0 0.00 0.27 0.00 92 1015.9
20260507033005 46 279 0.0 0.0 0.00 0.27 0.00 92 1015.9
20260507032505 47 278 0.0 0.0 0.00 0.27 0.00 92 1015.9
20260507032005 47 279 0.0 0.0 0.00 0.27 0.00 91 1016.1
20260507031005 47 284 1.0 2.0 0.00 0.27 0.00 89 1016.3
20260507030506 47 293 2.0 3.0 0.00 0.27 0.00 89 1016.3
20260507030005 47 296 2.0 3.0 0.00 0.27 0.00 89 1016.3
20260507025005 47 281 0.0 1.0 0.00 0.27 0.00 89 1015.9
20260507024505 47 282 0.0 2.0 0.00 0.27 0.00 89 1015.9
20260507024005 47 270 2.0 5.0 0.00 0.27 0.00 88 1015.9
20260507023505 48 259 2.0 5.0 0.00 0.27 0.00 88 1015.9
20260507023005 48 277 3.0 5.0 0.00 0.27 0.00 88 1015.9
20260507022506 48 278 3.0 5.0 0.00 0.27 0.00 88 1015.9
20260507022005 48 276 1.0 3.0 0.00 0.27 0.00 88 1015.9
20260507021505 48 279 2.0 3.0 0.00 0.27 0.00 87 1016.3
20260507021005 48 253 2.0 3.0 0.00 0.27 0.00 87 1015.6
20260507020505 48 282 1.0 2.0 0.00 0.27 0.00 87 1015.9
20260507020005 48 291 4.0 7.0 0.00 0.27 0.00 87 1015.8
20260507015505 48 296 6.0 7.0 0.00 0.27 0.00 87 1015.6
20260507015005 48 282 3.0 3.0 0.00 0.27 0.00 87 1015.6
20260507014505 48 292 2.0 3.0 0.00 0.27 0.00 87 1015.6
20260507013520 48 289 2.0 3.0 0.00 0.27 0.00 87 1015.6
20260507013005 48 290 2.0 6.0 0.00 0.27 0.00 88 1015.6
20260507012505 48 300 3.0 6.0 0.00 0.27 0.00 88 1015.6
20260507012005 47 287 1.0 6.0 0.00 0.27 0.00 88 1015.6
20260507011505 48 279 6.0 6.0 0.00 0.27 0.00 88 1015.6
20260507011005 48 282 2.0 6.0 0.00 0.27 0.00 88 1015.6
20260507010505 48 289 1.0 3.0 0.00 0.27 0.00 88 1015.6
20260507010005 48 303 2.0 5.0 0.00 0.27 0.00 88 1015.6
20260507005505 48 278 3.0 5.0 0.00 0.27 0.00 88 1015.6
20260507004504 47 294 0.0 5.0 0.00 0.27 0.00 89 1015.6
20260507003505 48 221 1.0 3.0 0.00 0.27 0.00 88 1015.6
20260507002505 48 282 1.0 2.0 0.00 0.27 0.00 89 1015.6
20260507002005 48 292 0.0 0.0 0.00 0.27 0.00 88 1015.6
20260507001504 48 292 0.0 1.0 0.00 0.27 0.00 88 1015.6
20260507000505 48 267 0.0 0.0 0.00 0.27 0.00 88 1015.6
20260507000005 49 216 0.0 3.0 0.00 0.27 0.00 88 1015.9
20260506235504 49 263 1.0 3.0 0.00 0.27 0.00 88 1015.9
20260506235005 49 275 2.0 3.0 0.00 0.27 0.00 88 1015.9
20260506234505 49 280 3.0 7.0 0.00 0.27 0.00 88 1015.9
20260506234005 49 301 5.0 7.0 0.00 0.27 0.00 88 1015.6
20260506233505 49 281 2.0 3.0 0.00 0.27 0.00 88 1015.6
20260506232505 49 285 3.0 5.0 0.00 0.27 0.00 88 1015.6
20260506232005 49 285 3.0 5.0 0.00 0.27 0.00 88 1015.6
20260506231505 49 277 3.0 3.0 0.00 0.27 0.00 88 1015.6
20260506230505 49 315 2.0 3.0 0.00 0.27 0.00 87 1015.6
20260506230005 49 282 2.0 3.0 0.00 0.27 0.00 87 1015.6
20260506225504 49 282 2.0 3.0 0.00 0.27 0.00 87 1015.6
20260506225004 49 253 1.0 6.0 0.00 0.27 0.00 87 1015.6
20260506224505 49 285 5.0 8.0 0.00 0.27 0.00 87 1015.6
20260506224005 49 298 5.0 8.0 0.00 0.27 0.00 86 1015.6
20260506223520 49 277 3.0 8.0 0.00 0.27 0.00 86 1015.6
20260506223004 49 275 5.0 10.0 0.00 0.27 0.00 86 1015.6
20260506221505 49 280 5.0 6.0 0.00 0.27 0.00 87 1015.2
20260506221004 49 92 3.0 5.0 0.00 0.27 0.00 88 1015.6
20260506220505 49 211 2.0 5.0 0.00 0.27 0.00 88 1015.3
20260506220005 49 237 2.0 3.0 0.00 0.27 0.00 88 1015.2
20260506215504 49 271 1.0 2.0 0.00 0.27 0.27 88 1015.2
20260506215006 49 264 1.0 2.0 0.00 0.27 0.27 88 1014.9
20260506214505 49 253 1.0 2.0 0.00 0.27 0.27 88 1014.9
20260506214005 49 290 1.0 2.0 0.00 0.27 0.27 88 1015.2
20260506213505 49 291 2.0 3.0 0.00 0.27 0.27 88 1015.2
20260506213005 49 292 2.0 8.0 0.00 0.27 0.27 87 1015.2
20260506212005 50 317 2.0 6.0 0.00 0.27 0.27 86 1014.9
20260506211505 49 267 3.0 6.0 0.00 0.27 0.27 87 1014.9
20260506211005 49 282 5.0 8.0 0.00 0.27 0.27 87 1015.0
20260506210005 49 305 3.0 6.0 0.00 0.31 0.27 90 1015.2
20260506205505 49 295 2.0 8.0 0.00 0.31 0.27 90 1014.9
20260506205005 49 284 6.0 8.0 0.00 0.34 0.27 91 1014.9
20260506204505 49 283 3.0 8.0 0.00 0.34 0.27 90 1014.9
20260506204005 49 280 3.0 5.0 0.00 0.37 0.27 90 1014.9
20260506203005 49 291 2.0 2.0 0.00 0.39 0.27 90 1014.9
20260506202505 49 254 1.0 2.0 0.00 0.40 0.27 90 1014.9
20260506202005 49 279 0.0 2.0 0.00 0.43 0.27 90 1014.6
20260506201505 49 297 1.0 2.0 0.00 0.43 0.27 90 1014.6
20260506201005 49 254 1.0 2.0 0.00 0.44 0.27 90 1014.6
20260506200505 49 275 0.0 0.0 0.00 0.44 0.27 89 1014.6
20260506200005 50 298 0.0 3.0 0.00 0.44 0.27 89 1014.6
20260506195505 50 291 3.0 3.0 0.00 0.44 0.27 88 1014.2
20260506195005 50 291 2.0 3.0 0.00 0.44 0.27 88 1014.2
20260506194505 50 281 0.0 5.0 0.00 0.44 0.27 88 1014.6
20260506194005 50 308 3.0 5.0 0.00 0.44 0.27 88 1014.6
20260506193505 50 289 3.0 5.0 0.00 0.44 0.27 88 1014.2
20260506193005 50 284 0.0 1.0 0.00 0.44 0.27 88 1014.6
20260506192005 50 294 7.0 9.0 0.00 0.44 0.27 88 1014.2
20260506191505 50 301 3.0 7.0 0.00 0.44 0.27 87 1014.6
20260506191005 50 278 3.0 12.0 0.00 0.45 0.27 86 1014.6
20260506190505 50 284 9.0 12.0 0.00 0.45 0.27 86 1014.2
20260506190005 50 280 7.0 12.0 0.00 0.45 0.27 86 1014.1
20260506185504 50 275 6.0 8.0 0.00 0.45 0.27 87 1013.9
20260506185005 50 288 5.0 7.0 0.00 0.45 0.27 88 1013.9
20260506184005 50 285 5.0 6.0 0.00 0.45 0.27 87 1013.5
20260506183005 50 290 6.0 8.0 0.00 0.45 0.27 87 1013.2
20260506182505 50 295 5.0 7.0 0.00 0.45 0.27 87 1013.2
20260506182007 50 298 5.0 7.0 0.00 0.45 0.27 87 1013.2
20260506181505 50 298 5.0 10.0 0.00 0.45 0.27 87 1013.2
20260506181006 51 290 8.0 10.0 0.00 0.45 0.27 86 1013.2
20260506180506 51 316 4.0 10.0 0.00 0.45 0.27 87 1012.9
20260506180006 51 318 3.0 7.0 0.00 0.45 0.27 87 1012.9
20260506175505 51 260 6.0 12.0 0.00 0.45 0.27 86 1012.9
20260506175005 51 279 8.0 12.0 0.00 0.45 0.27 87 1012.9
20260506174505 51 280 8.0 12.0 0.00 0.45 0.27 87 1012.9
20260506174005 51 267 3.0 9.0 0.00 0.45 0.27 88 1012.5
20260506173505 51 291 6.0 9.0 0.00 0.45 0.27 88 1012.5
20260506173005 51 292 6.0 9.0 0.00 0.45 0.27 88 1012.5
20260506171505 52 308 8.0 12.0 0.00 0.45 0.27 89 1012.5
20260506171005 53 278 7.0 12.0 0.00 0.45 0.27 90 1012.2
20260506170506 55 286 9.0 12.0 0.00 0.45 0.27 95 1011.9
20260506170005 55 286 9.0 12.0 0.00 0.45 0.27 95 1011.9
20260506165505 56 298 3.0 3.0 0.00 0.45 0.27 96 1011.5
20260506165005 55 314 0.0 3.0 0.00 0.45 0.27 96 1011.2
20260506164505 55 340 0.0 2.0 0.00 0.45 0.27 96 1011.2
20260506164005 56 258 1.0 2.0 0.00 0.45 0.27 96 1011.2
20260506163505 55 286 1.0 2.0 0.00 0.45 0.27 96 1011.2
20260506163005 55 293 1.0 2.0 0.00 0.45 0.27 96 1011.2
20260506162505 55 204 0.0 0.0 0.00 0.45 0.27 96 1010.8
20260506161506 55 293 0.0 0.0 0.00 0.45 0.27 96 1010.8
20260506161006 55 107 0.0 0.0 0.01 0.45 0.27 96 1011.2
20260506160505 55 118 0.0 0.0 0.01 0.45 0.27 95 1011.2
20260506160005 55 120 0.0 0.0 0.03 0.45 0.27 95 1011.2
20260506155505 55 266 0.0 0.0 0.05 0.45 0.27 96 1010.5
20260506155005 55 138 0.0 0.0 0.05 0.45 0.27 96 1010.5
20260506154505 55 132 0.0 0.0 0.16 0.45 0.27 96 1010.5
20260506154005 55 291 0.0 0.0 0.24 0.45 0.27 96 1010.5
20260506153505 54 268 0.0 0.0 0.24 0.45 0.27 96 1010.8
20260506153005 54 266 0.0 0.0 0.27 0.45 0.27 96 1010.8
20260506152504 54 11 0.0 0.0 0.27 0.45 0.27 96 1010.5
20260506152006 53 297 0.0 0.0 0.27 0.45 0.27 96 1011.1
20260506151505 53 293 0.0 2.0 0.27 0.45 0.27 96 1011.2
20260506151005 53 290 1.0 2.0 0.26 0.44 0.26 95 1011.5
20260506150006 53 273 1.0 3.0 0.24 0.42 0.24 95 1011.2
20260506145506 53 315 2.0 20.0 0.22 0.40 0.22 94 1011.9
20260506145005 54 283 12.0 20.0 0.22 0.40 0.22 92 1011.6
20260506144505 54 282 13.0 20.0 0.11 0.29 0.11 92 1011.5
20260506144005 57 210 8.0 16.0 0.03 0.21 0.03 84 1011.2
20260506143504 61 264 6.0 16.0 0.03 0.21 0.03 70 1010.6
20260506143005 62 277 6.0 8.0 0.00 0.18 0.00 70 1010.5
20260506142504 63 85 2.0 3.0 0.00 0.18 0.00 67 1009.5
20260506142005 63 255 2.0 3.0 0.00 0.18 0.00 66 1009.5
20260506140005 65 287 5.0 7.0 0.00 0.18 0.00 63 1009.5
20260506135505 65 110 0.0 0.0 0.00 0.18 0.00 63 1009.5
20260506135005 66 204 0.0 0.0 0.00 0.18 0.00 64 1009.7
20260506134505 66 254 0.0 0.0 0.00 0.18 0.00 64 1009.8
20260506134005 68 88 0.0 0.0 0.00 0.18 0.00 61 1009.5
20260506133505 68 42 2.0 3.0 0.00 0.18 0.00 61 1009.6
20260506133005 68 356 3.0 3.0 0.00 0.18 0.00 60 1009.8
20260506132505 67 38 1.0 2.0 0.00 0.18 0.00 61 1009.5
20260506132005 67 43 1.0 3.0 0.00 0.18 0.00 61 1009.5
20260506131504 66 74 1.0 5.0 0.00 0.18 0.00 62 1009.5
20260506131005 67 304 3.0 5.0 0.00 0.18 0.00 61 1009.8
20260506130006 67 129 0.0 2.0 0.00 0.18 0.00 61 1009.8
20260506125504 67 85 1.0 2.0 0.00 0.18 0.00 61 1009.8
20260506125005 67 86 1.0 2.0 0.00 0.18 0.00 61 1009.8
20260506124505 67 122 1.0 1.0 0.00 0.18 0.00 61 1009.8
20260506124005 66 258 0.0 1.0 0.00 0.18 0.00 63 1010.2
20260506123505 66 258 0.0 1.0 0.00 0.18 0.00 63 1010.2
20260506123005 67 219 0.0 1.0 0.00 0.18 0.00 61 1010.2
20260506122505 67 271 1.0 1.0 0.00 0.18 0.00 60 1010.2
20260506122005 67 271 1.0 1.0 0.00 0.18 0.00 60 1010.2
20260506121005 65 143 0.0 0.0 0.00 0.18 0.00 64 1010.5
20260506120504 65 143 1.0 5.0 0.00 0.18 0.00 64 1010.5
20260506120005 65 99 2.0 5.0 0.00 0.18 0.00 63 1010.5
20260506115505 64 109 0.0 1.0 0.00 0.18 0.00 63 1010.5
20260506114005 64 167 3.0 6.0 0.00 0.18 0.00 62 1010.8
20260506113505 64 167 3.0 6.0 0.00 0.18 0.00 62 1010.8
20260506113005 64 133 1.0 2.0 0.00 0.18 0.00 63 1010.5
20260506112505 64 137 1.0 2.0 0.00 0.18 0.00 63 1010.8
20260506112005 64 137 1.0 3.0 0.00 0.18 0.00 63 1010.8
20260506111505 64 116 1.0 3.0 0.00 0.18 0.00 62 1010.8
20260506111005 65 132 2.0 3.0 0.00 0.18 0.00 62 1011.2
20260506110505 65 133 2.0 3.0 0.00 0.18 0.00 62 1011.2
20260506110005 65 248 1.0 1.0 0.00 0.18 0.00 63 1011.2
20260506105505 65 276 0.0 1.0 0.00 0.18 0.00 62 1011.2
20260506105005 65 292 0.0 1.0 0.00 0.18 0.00 61 1011.2
20260506103505 64 97 0.0 2.0 0.00 0.18 0.00 61 1011.5
20260506103005 64 129 0.0 1.0 0.00 0.18 0.00 66 1011.2
20260506102505 64 110 0.0 1.0 0.00 0.18 0.00 65 1011.3
20260506102004 63 104 0.0 1.0 0.00 0.18 0.00 64 1011.5
20260506100006 63 128 0.0 0.0 0.00 0.18 0.00 64 1011.5
20260506095505 63 126 2.0 3.0 0.00 0.18 0.00 64 1011.7
20260506095005 64 124 2.0 3.0 0.00 0.18 0.00 63 1011.9
20260506094505 65 119 0.0 1.0 0.00 0.18 0.00 66 1011.9
20260506094005 64 264 0.0 1.0 0.00 0.18 0.00 66 1011.9
20260506093005 62 114 0.0 0.0 0.00 0.18 0.00 67 1011.9
20260506092505 62 122 0.0 0.0 0.00 0.18 0.00 67 1012.0
20260506092004 62 129 0.0 2.0 0.00 0.18 0.00 67 1012.2
20260506091505 62 121 2.0 2.0 0.00 0.18 0.00 67 1011.5
20260506091005 63 124 1.0 2.0 0.00 0.18 0.00 67 1011.5
20260506090505 63 127 0.0 0.0 0.00 0.18 0.00 67 1011.5
20260506090004 63 116 0.0 0.0 0.00 0.18 0.00 66 1011.9
20260506085005 63 139 1.0 1.0 0.00 0.18 0.00 68 1011.9
20260506084504 62 224 0.0 2.0 0.00 0.18 0.00 65 1011.9
20260506084005 62 149 1.0 2.0 0.00 0.18 0.00 67 1011.9
20260506083505 62 132 1.0 2.0 0.00 0.18 0.00 68 1011.9
20260506083004 64 120 1.0 2.0 0.00 0.18 0.00 66 1011.9
20260506082504 63 135 0.0 2.0 0.00 0.18 0.00 70 1011.9
20260506081504 63 130 0.0 0.0 0.00 0.18 0.00 70 1011.9
20260506080505 62 309 0.0 0.0 0.00 0.18 0.00 66 1011.9
20260506073505 62 267 0.0 1.0 0.00 0.18 0.00 70 1012.2
20260506073005 63 295 0.0 1.0 0.00 0.18 0.00 70 1012.2